sat.trackr.live / text

‹ back to catalog

STARLINK-30355

NORAD 57777 · 2023-134G

PAYLOAD ACTIVE UNKNOWN

§ Identity

Operator
Country
US
Launch date
2023-09-04
Launch site
AFETR
Launch vehicle
Mass (kg)
RCS (m²)

Purposes: comms

External: N2YO · Heavens-Above · Gunter

§ Orbital elements

Epoch: 2026-05-24T23:35:47.990112Z

Period
94.27 min
Inclination
43.0001°
Eccentricity
0.0000953
Mean motion
15.27582954 rev/d
Perigee alt
482.4 km
Apogee alt
483.7 km
Semi-major
6,861.2 km
B*
6.1401e-5
RAAN
127.1150°
Arg perigee
264.8181°
Mean anomaly
95.2561°
Rev number
15,112

§ Raw data

STARLINK-303551 57777U 23134G   26144.98319433  .00001428  00000+0  61401-4 0  99932 57777  43.0001 127.1150 0000953 264.8181  95.2561 15.27582954151123

JSON: /api/v1/satellites/57777 · /tle

For live sub-satellite position, see the globe view (requires WebGL).

§ Visibility from observer

Set your observer location to see the next 7 days of passes ≥ 10°. The values pass through the URL so the page stays shareable.

No JS? Fill the form by hand. The geolocation button needs JavaScript.